Location: Ferndale
(51.6606°N, 3.4475°W)
Time: 13:57:11
(UTC+00:00)

Daily predictions for brighter satellites

Satellite Brightness Start Highest point End
(mag) Time Altitude Azimuth Time Altitude Azimuth Time Altitude Azimuth
Cosmos 2082 Rocket 4.4 17:29:06 10° NNW 17:30:03 10° N 17:30:59 10° N
Helios 1A Rocket 4.0 17:26:10 10° S 17:30:08 51° W 17:34:09 10° NNW
Okean-O 2.9 17:26:04 10° SE 17:30:18 46° ENE 17:34:33 10° N
Cosmos 2237 Rocket 4.1 17:27:34 10° NW 17:32:41 37° WSW 17:37:46 10° S
Meteor 2-10 Rocket 3.5 17:28:05 10° N 17:33:21 67° ENE 17:38:23 10° SSE
AQUARIUS 4.2 17:30:10 10° SSE 17:34:41 87° ENE 17:39:12 10° NNW
CORIOLIS 4.2 17:29:48 10° SSE 17:35:10 83° ENE 17:40:32 10° NNW
YAOGAN 1 3.6 17:31:39 10° ESE 17:35:12 25° ENE 17:38:46 10° N
CZ-4 R/B 2.3 17:31:54 10° SE 17:35:30 29° ENE 17:39:09 10° N
PSLV R/B 3.9 17:32:26 10° NNE 17:36:32 68° ESE 17:40:38 10° S
Cosmos 1703 4.0 17:33:19 10° SSE 17:36:55 34° E 17:40:33 10° NNE
CZ-4B R/B 3.5 17:38:19 10° N 17:40:54 25° WNW 17:43:28 10° WSW
Cosmos 1727 Rocket 4.2 17:36:04 10° N 17:42:03 47° ENE 17:47:59 10° SE
ATLAS CENTAUR R/B 1.8 17:38:12 10° NW 17:42:15 61° SW 17:45:59 10° SSE
Starlink AS 2.6 17:41:43 10° WNW 17:44:40 85° NNE 17:47:35 10° ESE
Starlink BA 2.6 17:41:55 10° WNW 17:44:51 86° NNE 17:47:47 10° ESE
Starlink AU 2.6 17:42:09 10° WNW 17:45:05 86° NNE 17:48:01 10° ESE
Starlink AT 2.6 17:42:23 10° WNW 17:45:20 86° NNE 17:48:16 10° ESE
Starlink BB 2.6 17:42:36 10° WNW 17:45:33 86° NNE 17:48:29 10° ESE
SL-8 Rocket 4.1 17:39:28 10° S 17:45:38 62° E 17:51:49 10° NNE
Starlink BC 2.6 17:42:50 10° WNW 17:45:46 86° NNE 17:48:42 10° ESE
Starlink BK 2.6 17:43:02 10° WNW 17:45:59 86° NNE 17:48:55 10° ESE
Starlink AY 2.6 17:43:17 10° WNW 17:46:13 86° NNE 17:49:09 10° ESE
Starlink AW 2.6 17:43:31 10° WNW 17:46:28 87° NNE 17:49:24 10° ESE
Starlink BJ 2.6 17:43:42 10° WNW 17:46:39 87° NNE 17:49:35 10° ESE
Starlink AV 2.6 17:43:58 10° WNW 17:46:54 87° NNE 17:49:50 10° ESE
Starlink BD 2.6 17:44:11 10° WNW 17:47:08 87° NNE 17:50:04 10° ESE
Starlink BE 2.7 17:44:21 10° WNW 17:47:19 87° N 17:50:17 10° ESE
Starlink BM 2.6 17:44:39 10° WNW 17:47:35 87° NNE 17:50:31 10° ESE
Starlink AX 2.6 17:44:50 10° WNW 17:47:47 88° N 17:50:43 10° ESE
Starlink BH 2.6 17:45:04 10° WNW 17:48:00 88° N 17:50:56 10° ESE
Starlink AZ 2.6 17:45:19 10° WNW 17:48:15 88° N 17:51:11 10° ESE
Starlink BG 2.6 17:45:31 10° WNW 17:48:28 88° NNE 17:51:23 10° ESE
Starlink BF 2.6 17:45:45 10° WNW 17:48:42 88° NNE 17:51:38 10° ESE
Starlink BL 2.7 17:45:55 10° WNW 17:48:54 88° NNE 17:51:51 10° ESE
Starlink AH 2.6 17:46:11 10° WNW 17:49:08 88° NE 17:52:04 10° ESE
Starlink AC 2.6 17:46:25 10° WNW 17:49:22 89° NNE 17:52:17 10° ESE
Starlink X 2.6 17:46:39 10° WNW 17:49:35 89° N 17:52:31 10° ESE
Starlink AE 2.7 17:46:48 10° WNW 17:49:47 89° N 17:52:45 10° ESE
Starlink Z 2.7 17:47:05 10° WNW 17:50:01 89° NNE 17:52:58 10° ESE
Starlink AK 2.7 17:47:19 10° WNW 17:50:15 89° N 17:53:12 10° ESE
Starlink AL 2.7 17:47:33 10° WNW 17:50:29 90° NNE 17:53:25 10° ESE
Starlink AQ 2.7 17:47:45 10° WNW 17:50:42 90° N 17:53:38 10° ESE
Starlink AD 2.7 17:47:46 10° WNW 17:50:43 90° N 17:53:39 10° ESE
Starlink Y 2.7 17:48:13 10° WNW 17:51:09 90° ESE 17:54:06 10° ESE
Starlink AG 2.7 17:48:26 10° WNW 17:51:24 90° SE 17:54:19 10° ESE
Starlink W 2.7 17:48:37 10° WNW 17:51:36 90° S 17:54:34 10° ESE
Starlink AJ 2.7 17:48:54 10° WNW 17:51:50 89° SW 17:54:46 10° ESE
Starlink AM 2.7 17:49:21 10° WNW 17:52:18 89° SSE 17:55:13 10° ESE
Starlink AP 2.7 17:49:34 10° WNW 17:52:31 89° SSW 17:55:27 10° ESE
Starlink AA 2.7 17:49:47 10° WNW 17:52:43 89° SSW 17:55:39 10° ESE
Starlink AF 2.7 17:50:01 10° WNW 17:52:57 89° SSW 17:55:53 10° ESE
Starlink AB 2.7 17:50:14 10° WNW 17:53:11 88° S 17:56:05 10° ESE
Starlink AN 2.7 17:50:28 10° WNW 17:53:25 88° S 17:56:19 10° ESE
YAOGAN 6 2.5 17:52:46 10° SSE 17:56:24 66° ENE 18:00:00 10° N
Starlink T 3.0 17:56:50 10° WNW 18:00:07 86° S 18:03:10 12° ESE
SL-16 R/B 3.1 17:54:58 10° NW 18:00:31 55° WSW 18:06:01 10° S
Starlink N 3.0 17:59:03 10° WNW 18:02:21 85° SSW 18:05:19 12° ESE
CZ-2D R/B 4.0 17:59:04 10° SE 18:02:26 30° ENE 18:05:52 10° N
Cosmos 1140 Rocket 4.2 17:58:03 10° NNW 18:02:49 33° NE 18:07:32 10° ESE
Starlink AR 2.7 18:00:44 10° WNW 18:03:29 71° SSW 18:05:53 13° ESE
Cosmos 1356 Rocket 3.3 18:00:12 10° N 18:04:17 70° ENE 18:08:23 10° SSE
Starlink Q 3.0 18:01:30 10° WNW 18:04:48 83° SSW 18:07:41 13° ESE
Cosmos 1953 Rocket 3.6 18:00:39 10° S 18:05:08 84° E 18:09:39 10° NNE
Cosmos 1842 Rocket 3.7 18:02:05 10° N 18:06:30 52° ENE 18:10:53 10° SSE
Starlink P 3.0 18:03:49 10° WNW 18:07:07 81° SSW 18:09:55 14° ESE
COSMO-SKYMED 1 2.9 18:03:15 10° NNE 18:07:26 45° E 18:11:37 10° S
Cosmos 1869 4.3 18:04:06 10° NNE 18:07:27 25° ENE 18:10:46 10° SE
NOAA 12 4.5 18:02:38 10° S 18:07:51 69° WSW 18:13:08 10° NNW
Cosmos 1758 Rocket 4.2 18:04:37 10° SSW 18:08:51 56° WNW 18:13:09 10° N
Cosmos 44 3.3 18:04:34 10° SW 18:09:05 70° NW 18:13:17 11° NE
Starlink U 3.0 18:06:07 10° WNW 18:09:26 80° SSW 18:12:08 14° ESE
Cosmos 2082 3.7 18:05:35 10° SSW 18:11:14 89° ESE 18:16:56 10° NNE
Starlink B 3.1 18:08:28 10° WNW 18:11:46 78° SSW 18:14:23 15° ESE
Cosmos 2219 4.2 18:08:37 10° WSW 18:13:58 44° NW 18:19:24 10° NNE
Cosmos 1603 3.7 18:08:19 10° NNW 18:14:01 68° NE 18:19:38 10° SE
Cosmos 2297 Rocket 2.8 18:08:48 10° SW 18:14:22 56° NW 18:19:58 10° NNE
Cosmos 2341 Rocket 4.5 18:10:16 10° SSW 18:16:35 66° WNW 18:22:53 10° N
Cosmos 2263 Rocket 3.1 18:12:53 10° SSE 18:17:24 26° ESE 18:20:23 17° ENE
USA 116 4.2 18:18:07 23° E 18:18:39 24° E 18:21:16 10° SSE
ISS -3.8 18:15:43 10° W 18:19:07 87° SSE 18:21:01 24° E
Cosmos 1821 Rocket 4.4 18:14:43 10° SSE 18:20:30 39° E 18:26:13 10° NNE
Cosmos 864 Rocket 4.4 18:14:37 10° S 18:20:44 82° E 18:26:56 10° NNE
Cosmos 1939 Rocket 3.0 18:20:27 10° SE 18:24:17 50° ENE 18:28:13 10° N
USA 267 3.3 18:22:01 16° ENE 18:27:24 75° SSE 18:33:57 10° SW
Envisat 4.0 18:23:01 10° S 18:27:56 50° W 18:32:54 10° NNW
Cosmos 2221 2.4 18:23:47 10° N 18:28:03 64° ENE 18:32:20 10° SSE
Cosmos 2227 Rocket 3.0 18:22:44 10° SW 18:28:13 50° NW 18:33:44 10° NNE
Starlink D 3.3 18:26:18 10° WNW 18:29:36 64° SSW 18:31:35 22° SE
NOAA 11 4.1 18:24:12 10° SSE 18:29:39 71° ENE 18:35:08 10° NNW
SKYMED 3 4.5 18:27:05 10° NNE 18:31:27 76° ESE 18:35:47 10° S
Starlink S 3.4 18:28:43 10° WNW 18:32:01 63° SSW 18:33:55 23° SE
HJ-1C 4.2 18:32:54 29° ENE 18:32:54 29° ENE 18:35:37 10° N
Cosmos 1954 Rocket 4.5 18:28:50 10° NNW 18:33:52 40° NE 18:37:31 17° ESE
Starlink C 3.4 18:31:06 10° WNW 18:34:24 61° SSW 18:36:13 24° SE
H-2A R/B 3.0 18:33:08 23° E 18:34:41 27° ENE 18:38:59 10° N
Cosmos 2218 Rocket 4.3 18:29:04 10° SSW 18:35:27 76° WNW 18:41:54 10° N
Cosmos 1076 Rocket 4.2 18:31:51 10° SSE 18:35:43 32° E 18:37:45 21° NE
CENTAUR R/B 4.0 18:32:30 10° SE 18:35:03 15° ESE 18:35:03 15° ESE
Starlink E 3.4 18:33:33 10° WNW 18:36:50 59° SSW 18:38:34 25° SE
Meteor 1-27 4.2 18:31:31 10° NNW 18:37:08 86° WSW 18:42:43 10° S
Starlink J 3.5 18:36:00 10° WNW 18:39:17 57° SSW 18:40:56 26° SE
Meteor 1-11 4.1 18:34:25 10° S 18:40:01 87° ESE 18:45:38 10° NNE
Cosmos 1943 3.1 18:35:42 10° NNW 18:41:23 82° ENE 18:47:04 10° SSE
Starlink V 3.5 18:38:26 10° WNW 18:41:42 55° SSW 18:43:16 27° SE
Starlink H 3.6 18:40:54 10° WNW 18:44:10 54° SSW 18:45:38 28° SE
Cosmos 2123 Rocket 4.2 18:38:34 10° N 18:44:41 48° ENE 18:50:43 10° SSE
Cosmos 407 Rocket 3.4 18:40:39 10° NNW 18:45:59 83° ENE 18:51:13 10° SSE
Starlink F 3.7 18:43:21 10° WNW 18:46:37 52° SSW 18:48:01 29° SE
NOSS 3-2 (A) 4.1 18:42:23 10° S 18:47:31 33° ESE 18:49:29 28° E
SL-8 R/B 4.0 18:43:07 10° W 18:47:52 60° S 18:50:09 29° ESE
Cosmos 1934 Rocket 4.3 18:42:43 10° SSE 18:48:14 38° E 18:53:46 10° NNE
Cosmos 1000 Rocket 4.4 18:42:10 10° N 18:48:24 77° E 18:54:40 10° SSE
Cosmos 2058 3.4 18:44:58 10° SSE 18:48:42 36° E 18:48:42 36° E
Cosmos 1190 Rocket 3.9 18:43:33 10° NNW 18:48:54 78° ENE 18:54:14 10° SSE
Starlink G 3.7 18:45:49 10° WNW 18:49:04 50° SSW 18:50:22 30° SSE
Starlink L 3.8 18:48:16 10° WNW 18:51:31 49° SSW 18:52:44 31° SSE
ERBS 3.4 18:48:54 10° WNW 18:51:56 31° N 18:52:26 30° NNE
Cosmos 1371 Rocket 4.3 18:47:21 10° S 18:52:14 43° ESE 18:54:20 29° NE
CSL-04 Debris 4.3 18:47:29 10° SSE 18:52:52 77° WSW 18:58:20 10° NNW
Starlink A 3.8 18:50:44 10° WNW 18:53:58 47° SSW 18:55:06 32° SSE
SKYMED 2 3.9 18:51:14 10° N 18:55:34 65° WNW 18:59:52 10° SSW
Starlink R 3.9 18:53:13 10° WNW 18:56:27 46° SSW 18:57:29 33° SSE
Cosmos 2239 Rocket 4.5 18:50:56 10° S 18:57:08 61° E 19:03:22 10° NNE
Starlink K 3.9 18:55:41 10° WNW 18:58:54 44° SSW 18:59:51 33° SSE
Starlink M 4.0 18:58:08 10° W 19:01:20 43° SSW 19:02:13 34° SSE
Cosmos 676 Rocket 4.0 18:56:27 10° NNW 19:01:47 64° ENE 19:05:10 22° SE
ADEOS Rocket 3.4 18:56:30 10° NNE 19:03:14 56° E 19:10:33 10° S
USA 234 4.3 18:58:04 10° SSE 19:04:14 44° SW 19:10:27 10° WNW
Cosmos 44 Rocket 3.1 18:59:48 10° SW 19:04:35 82° SE 19:06:24 38° NE
SPOT 3 Rocket 4.3 19:05:57 32° NE 19:05:57 32° NE 19:09:59 10° N
ATLAS 5 CENTAUR R/B 3.4 19:02:25 10° NW 19:06:35 25° NNE 19:07:51 23° NNE
CSL-04 Rocket 4.3 19:03:54 10° S 19:09:22 60° WSW 19:14:54 10° NNW
CZ-4 R/B 3.1 19:06:38 10° SSW 19:10:26 35° W 19:14:20 10° NNW
YAOGAN 1 3.7 19:06:57 10° S 19:11:06 45° W 19:15:17 10° NNW
Ariane Rocket 2.9 19:06:08 10° SSE 19:11:12 75° ENE 19:16:19 10° NNW
Cosmos 1535 Rocket 4.5 19:08:34 10° S 19:14:47 60° E 19:21:04 10° NNE
Cosmos 2082 Rocket 4.1 19:13:45 10° N 19:16:47 15° NNE 19:16:47 15° NNE
Cosmos 1624 Rocket 3.9 19:13:22 10° S 19:18:34 62° ESE 19:19:50 47° NE
Cosmos 1400 Rocket 4.5 19:17:51 10° N 19:19:30 23° N 19:19:30 23° N
Cosmos 2084 3.4 19:19:17 10° NW 19:23:41 81° SW 19:24:16 65° SSE
Timation 1 Rocket 4.2 19:20:41 10° SSW 19:26:38 73° ESE 19:28:51 40° NE
USA 238 DEB 3.6 19:22:32 10° SSW 19:29:09 65° SE 19:31:14 45° ENE
USA 238 3.6 19:22:39 10° SSW 19:29:15 64° SE 19:31:17 45° ENE
BREEZE-M DEB (TANK) 4.0 19:15:16 10° W 19:29:47 68° SSW 19:31:14 46° SE
COSMOS 2406 4.4 19:27:24 10° NNW 19:31:18 27° NNE 19:31:18 27° NNE
Cosmos 1447 Rocket 4.4 19:28:38 10° N 19:34:42 56° ENE 19:34:58 55° E
Cosmos 2056 Rocket 3.4 19:29:39 10° SSW 19:34:57 79° ESE 19:36:02 58° NE
In-Cosmos 22 Rocket 4.0 19:33:04 10° S 19:38:42 84° E 19:42:46 19° NNE
Cosmos 1140 Rocket 4.4 19:39:46 10° NNW 19:44:49 48° WSW 19:49:49 10° S
MOS 1 4.3 19:43:31 20° SSE 19:47:37 80° WSW 19:53:21 10° NNW
CZ-2C R/B 3.1 19:47:50 75° E 19:47:59 75° ENE 19:53:47 10° NNW
ARGOS 3.0 19:49:46 82° ESE 19:49:54 83° ENE 19:55:21 10° NNW
ISS -1.3 19:52:32 10° W 19:53:59 23° W 19:53:59 23° W
Cosmos 2297 Rocket 4.5 19:55:54 10° WNW 19:59:43 18° NNW 20:03:09 11° N
Cosmos 2263 Rocket 2.5 19:55:23 10° SW 20:00:55 64° NW 20:02:08 51° N
USA 267 3.4 20:09:21 56° NNE 20:10:23 63° NNW 20:16:50 10° W
ATLAS 3B R/B 4.0 20:04:38 10° S 20:07:10 23° S 20:07:10 23° S
H-2A R/B 2.5 20:13:45 57° WSW 20:13:47 57° W 20:18:56 10° NNW
Cosmos 1605 Rocket 4.0 20:10:39 10° SSW 20:17:01 79° W 20:23:28 10° N
Cosmos 1833 Rocket 4.4 20:12:56 10° NNW 20:15:28 22° N 20:15:28 22° N
NOSS 3-2 (C) 4.0 20:15:58 10° SW 20:19:51 45° SSW 20:19:51 45° SSW
CENTAUR R/B 3.5 20:19:08 10° SSW 20:22:18 34° SSW 20:22:18 34° SSW
NOSS 3-2 (A) 3.9 20:31:58 10° WSW 20:36:55 59° W 20:36:55 59° W
ADEOS Rocket 4.5 20:42:23 10° N 20:48:34 40° WNW 20:55:18 10° SW
ATLAS 5 CENTAUR R/B 3.9 20:47:08 10° NW 20:49:24 25° NNW 20:49:24 25° NNW
Cosmos 2082 Rocket 4.4 20:57:14 10° NNW 20:58:39 17° NNW 20:58:39 17° NNW
